Time,TemperatureF,DewpointF,PressureIn,WindDirection,WindDirectionDegrees,WindSpeedMPH,WindSpeedGustMPH,Humidity,HourlyPrecipIn,Conditions,Clouds,dailyrainin,SoftwareType,DateUTC
2013-02-01 00:05:00,30.0,9.1,29.84,WSW,250,4.0,4.0,41,0.00,,,0.00,Wunderground v.1.13,2013-02-01 05:05:00,
2013-02-01 00:15:00,30.0,9.1,29.85,WNW,300,4.0,11.0,41,0.00,,,0.00,Wunderground v.1.13,2013-02-01 05:15:00,
2013-02-01 00:20:00,30.0,8.6,29.85,West,277,4.0,4.0,40,0.00,,,0.00,Wunderground v.1.13,2013-02-01 05:20:00,
2013-02-01 00:25:00,30.0,9.1,29.85,WSW,244,4.0,4.0,41,0.00,,,0.00,Wunderground v.1.13,2013-02-01 05:25:00,
2013-02-01 00:35:00,30.0,9.1,29.85,West,274,5.0,5.0,41,0.00,,,0.00,Wunderground v.1.13,2013-02-01 05:35:00,
2013-02-01 00:45:00,30.0,8.6,29.85,WSW,252,5.0,5.0,40,0.00,,,0.00,Wunderground v.1.13,2013-02-01 05:45:00,
2013-02-01 00:55:00,29.8,8.9,29.85,WSW,248,4.0,4.0,41,0.00,,,0.00,Wunderground v.1.13,2013-02-01 05:55:00,
2013-02-01 01:00:00,29.8,8.9,29.86,SW,234,3.0,12.0,41,0.00,,,0.00,Wunderground v.1.13,2013-02-01 06:00:00,
2013-02-01 01:10:00,29.7,9.4,29.86,WSW,250,3.0,16.0,42,0.00,,,0.00,Wunderground v.1.13,2013-02-01 06:10:00,
2013-02-01 01:15:00,29.7,9.4,29.86,SW,236,4.0,16.0,42,0.00,,,0.00,Wunderground v.1.13,2013-02-01 06:15:00,
2013-02-01 01:25:00,29.5,9.2,29.86,WSW,252,4.0,4.0,42,0.00,,,0.00,Wunderground v.1.13,2013-02-01 06:25:00,
2013-02-01 01:35:00,29.4,9.6,29.86,WNW,285,2.0,12.0,43,0.00,,,0.00,Wunderground v.1.13,2013-02-01 06:35:00,
2013-02-01 01:40:00,29.3,9.5,29.86,WSW,254,3.0,3.0,43,0.00,,,0.00,Wunderground v.1.13,2013-02-01 06:40:00,
2013-02-01 01:50:00,29.1,9.4,29.86,West,262,2.0,8.0,43,0.00,,,0.00,Wunderground v.1.13,2013-02-01 06:50:00,
2013-02-01 01:55:00,29.1,9.9,29.87,West,273,3.0,3.0,44,0.00,,,0.00,Wunderground v.1.13,2013-02-01 06:55:00,
2013-02-01 02:05:00,29.0,9.8,29.87,WSW,257,2.0,2.0,44,0.00,,,0.00,Wunderground v.1.13,2013-02-01 07:05:00,
2013-02-01 02:10:00,28.8,9.6,29.87,WSW,254,2.0,9.0,44,0.00,,,0.00,Wunderground v.1.13,2013-02-01 07:10:00,
2013-02-01 02:15:00,28.8,10.1,29.87,WSW,244,1.0,1.0,45,0.00,,,0.00,Wunderground v.1.13,2013-02-01 07:15:00,
2013-02-01 02:25:00,28.8,10.1,29.86,SSW,194,2.0,7.0,45,0.00,,,0.00,Wunderground v.1.13,2013-02-01 07:25:00,
2013-02-01 02:30:00,28.8,10.1,29.86,SW,217,2.0,7.0,45,0.00,,,0.00,Wunderground v.1.13,2013-02-01 07:30:00,
2013-02-01 02:40:00,28.5,9.8,29.86,WSW,252,1.0,1.0,45,0.00,,,0.00,Wunderground v.1.13,2013-02-01 07:40:00,
2013-02-01 02:50:00,28.4,10.2,29.86,West,259,1.0,1.0,46,0.00,,,0.00,Wunderground v.1.13,2013-02-01 07:50:00,
2013-02-01 03:00:00,28.2,10.0,29.86,WSW,248,0.0,12.0,46,0.00,,,0.00,Wunderground v.1.13,2013-02-01 08:00:00,
2013-02-01 03:05:00,28.2,10.0,29.86,WSW,248,0.0,4.0,46,0.00,,,0.00,Wunderground v.1.13,2013-02-01 08:05:00,
2013-02-01 03:15:00,27.9,9.8,29.86,WSW,248,1.0,1.0,46,0.00,,,0.00,Wunderground v.1.13,2013-02-01 08:15:00,
2013-02-01 03:20:00,27.9,9.8,29.86,WSW,248,0.0,3.0,46,0.00,,,0.00,Wunderground v.1.13,2013-02-01 08:20:00,
2013-02-01 03:30:00,27.8,10.2,29.86,WSW,258,1.0,3.0,47,0.00,,,0.00,Wunderground v.1.13,2013-02-01 08:30:00,
2013-02-01 03:40:00,27.8,10.2,29.86,SW,221,2.0,2.0,47,0.00,,,0.00,Wunderground v.1.13,2013-02-01 08:40:00,
2013-02-01 03:45:00,27.9,9.8,29.87,SSW,207,2.0,7.0,46,0.00,,,0.00,Wunderground v.1.13,2013-02-01 08:45:00,
2013-02-01 03:55:00,27.8,10.2,29.86,WSW,241,1.0,6.0,47,0.00,,,0.00,Wunderground v.1.13,2013-02-01 08:55:00,
2013-02-01 04:00:00,27.8,10.2,29.86,WSW,251,1.0,6.0,47,0.00,,,0.00,Wunderground v.1.13,2013-02-01 09:00:00,
2013-02-01 04:10:00,27.9,10.2,29.86,SW,223,2.0,2.0,47,0.00,,,0.00,Wunderground v.1.13,2013-02-01 09:10:00,
2013-02-01 04:15:00,27.8,10.6,29.86,SW,223,1.0,5.0,48,0.00,,,0.00,Wunderground v.1.13,2013-02-01 09:15:00,
2013-02-01 04:25:00,27.8,11.1,29.87,West,269,1.0,6.0,49,0.00,,,0.00,Wunderground v.1.13,2013-02-01 09:25:00,
2013-02-01 04:30:00,27.8,10.6,29.86,West,264,2.0,6.0,48,0.00,,,0.00,Wunderground v.1.13,2013-02-01 09:30:00,
2013-02-01 04:40:00,28.1,10.9,29.86,West,265,2.0,6.0,48,0.00,,,0.00,Wunderground v.1.13,2013-02-01 09:40:00,
2013-02-01 04:50:00,28.1,11.4,29.86,SW,235,1.0,9.0,49,0.00,,,0.00,Wunderground v.1.13,2013-02-01 09:50:00,
2013-02-01 04:55:00,28.1,10.9,29.86,West,261,1.0,9.0,48,0.00,,,0.00,Wunderground v.1.13,2013-02-01 09:55:00,
2013-02-01 05:05:00,28.1,11.4,29.86,WSW,248,1.0,6.0,49,0.00,,,0.00,Wunderground v.1.13,2013-02-01 10:05:00,
2013-02-01 05:10:00,28.1,11.4,29.86,WSW,248,0.0,6.0,49,0.00,,,0.00,Wunderground v.1.13,2013-02-01 10:10:00,
2013-02-01 05:20:00,28.1,11.8,29.86,WSW,248,0.0,4.0,50,0.00,,,0.00,Wunderground v.1.13,2013-02-01 10:20:00,
2013-02-01 05:25:00,28.1,11.8,29.86,WSW,248,0.0,4.0,50,0.00,,,0.00,Wunderground v.1.13,2013-02-01 10:25:00,
2013-02-01 05:35:00,28.1,11.8,29.87,WSW,238,1.0,1.0,50,0.00,,,0.00,Wunderground v.1.13,2013-02-01 10:35:00,
2013-02-01 05:45:00,27.9,12.1,29.87,WSW,248,1.0,3.0,51,0.00,,,0.00,Wunderground v.1.13,2013-02-01 10:45:00,
2013-02-01 05:50:00,27.9,12.1,29.87,West,276,0.0,4.0,51,0.00,,,0.00,Wunderground v.1.13,2013-02-01 10:50:00,
2013-02-01 06:00:00,27.9,12.1,29.87,West,263,1.0,1.0,51,0.00,,,0.00,Wunderground v.1.13,2013-02-01 11:00:00,
2013-02-01 06:05:00,28.1,12.3,29.87,West,263,1.0,4.0,51,0.00,,,0.00,Wunderground v.1.13,2013-02-01 11:05:00,
2013-02-01 06:15:00,28.1,12.3,29.88,West,263,1.0,1.0,51,0.00,,,0.00,Wunderground v.1.13,2013-02-01 11:15:00,
2013-02-01 06:25:00,28.2,12.4,29.87,West,263,1.0,3.0,51,0.00,,,0.00,Wunderground v.1.13,2013-02-01 11:25:00,
2013-02-01 06:30:00,28.2,12.4,29.87,West,263,1.0,1.0,51,0.00,,,0.00,Wunderground v.1.13,2013-02-01 11:30:00,
2013-02-01 06:40:00,28.4,12.6,29.88,West,263,0.0,4.0,51,0.00,,,0.00,Wunderground v.1.13,2013-02-01 11:40:00,
2013-02-01 06:45:00,28.4,12.6,29.88,West,263,0.0,4.0,51,0.00,,,0.00,Wunderground v.1.13,2013-02-01 11:45:00,
2013-02-01 06:55:00,28.5,12.6,29.87,West,263,0.0,3.0,51,0.00,,,0.00,Wunderground v.1.13,2013-02-01 11:55:00,
2013-02-01 07:05:00,28.7,12.8,29.87,West,263,1.0,1.0,51,0.00,,,0.00,Wunderground v.1.13,2013-02-01 12:05:00,
2013-02-01 07:10:00,28.8,12.9,29.87,West,263,0.0,4.0,51,0.00,,,0.00,Wunderground v.1.13,2013-02-01 12:10:00,
2013-02-01 07:20:00,29.0,13.1,29.87,West,263,0.0,2.0,51,0.00,,,0.00,Wunderground v.1.13,2013-02-01 12:20:00,
2013-02-01 07:25:00,29.1,13.2,29.87,West,263,1.0,2.0,51,0.00,,,0.00,Wunderground v.1.13,2013-02-01 12:25:00,
2013-02-01 07:35:00,29.3,12.9,29.87,West,266,1.0,1.0,50,0.00,,,0.00,Wunderground v.1.13,2013-02-01 12:35:00,
2013-02-01 07:40:00,29.4,13.5,29.87,West,266,1.0,1.0,51,0.00,,,0.00,Wunderground v.1.13,2013-02-01 12:40:00,
2013-02-01 07:50:00,29.5,12.7,29.86,West,267,1.0,4.0,49,0.00,,,0.00,Wunderground v.1.13,2013-02-01 12:50:00,
2013-02-01 07:55:00,29.5,12.7,29.86,West,267,1.0,1.0,49,0.00,,,0.00,Wunderground v.1.13,2013-02-01 12:55:00,
2013-02-01 08:05:00,29.8,12.9,29.87,West,269,2.0,4.0,49,0.00,,,0.00,Wunderground v.1.13,2013-02-01 13:05:00,
2013-02-01 08:15:00,30.0,12.7,29.88,WNW,286,2.0,5.0,48,0.00,,,0.00,Wunderground v.1.13,2013-02-01 13:15:00,
2013-02-01 08:20:00,30.1,12.7,29.88,WNW,285,2.0,2.0,48,0.00,,,0.00,Wunderground v.1.13,2013-02-01 13:20:00,
2013-02-01 08:30:00,30.3,12.5,29.88,WNW,293,3.0,6.0,47,0.00,,,0.00,Wunderground v.1.13,2013-02-01 13:30:00,
2013-02-01 08:35:00,30.4,13.0,29.88,SSW,209,4.0,4.0,48,0.00,,,0.00,Wunderground v.1.13,2013-02-01 13:35:00,
2013-02-01 08:45:00,30.7,13.3,29.87,West,261,4.0,9.0,48,0.00,,,0.00,Wunderground v.1.13,2013-02-01 13:45:00,
2013-02-01 08:55:00,30.7,13.8,29.88,NW,311,6.0,6.0,49,0.00,,,0.00,Wunderground v.1.13,2013-02-01 13:55:00,
2013-02-01 09:05:00,30.4,15.3,29.88,WSW,255,6.0,15.0,53,0.00,,,0.00,Wunderground v.1.13,2013-02-01 14:05:00,
2013-02-01 09:10:00,30.3,15.6,29.88,West,272,6.0,15.0,54,0.00,,,0.00,Wunderground v.1.13,2013-02-01 14:10:00,
2013-02-01 09:15:00,30.1,15.4,29.88,West,261,5.0,5.0,54,0.00,,,0.00,Wunderground v.1.13,2013-02-01 14:15:00,
2013-02-01 09:25:00,30.3,15.6,29.88,West,280,4.0,4.0,54,0.00,,,0.00,Wunderground v.1.13,2013-02-01 14:25:00,
2013-02-01 09:30:00,30.4,15.3,29.88,NW,317,4.0,18.0,53,0.00,,,0.00,Wunderground v.1.13,2013-02-01 14:30:00,
2013-02-01 09:40:00,30.7,14.7,29.88,WNW,298,6.0,6.0,51,0.00,,,0.00,Wunderground v.1.13,2013-02-01 14:40:00,
2013-02-01 09:50:00,30.9,14.4,29.88,WNW,297,4.0,12.0,50,0.00,,,0.00,Wunderground v.1.13,2013-02-01 14:50:00,
2013-02-01 09:55:00,30.7,14.7,29.88,North,360,6.0,12.0,51,0.00,,,0.00,Wunderground v.1.13,2013-02-01 14:55:00,
2013-02-01 10:05:00,30.1,15.4,29.89,West,281,8.0,8.0,54,0.00,,,0.00,Wunderground v.1.13,2013-02-01 15:05:00,
2013-02-01 10:15:00,29.8,15.6,29.88,WNW,296,9.0,9.0,55,0.00,,,0.00,Wunderground v.1.13,2013-02-01 15:15:00,
2013-02-01 10:20:00,29.7,15.9,29.89,West,280,8.0,19.0,56,0.00,,,0.00,Wunderground v.1.13,2013-02-01 15:20:00,
2013-02-01 10:30:00,28.8,17.4,29.89,WNW,286,9.0,19.0,62,0.00,,,0.00,Wunderground v.1.13,2013-02-01 15:30:00,
2013-02-01 10:40:00,28.4,17.4,29.89,WNW,295,9.0,18.0,63,0.00,,,0.00,Wunderground v.1.13,2013-02-01 15:40:00,
2013-02-01 10:45:00,28.1,17.1,29.89,NW,306,9.0,9.0,63,0.00,,,0.00,Wunderground v.1.13,2013-02-01 15:45:00,
2013-02-01 10:50:00,27.8,17.6,29.89,North,355,8.0,21.0,65,0.00,,,0.00,Wunderground v.1.13,2013-02-01 15:50:00,
2013-02-01 11:00:00,27.9,16.2,29.88,WNW,283,7.0,7.0,61,0.00,,,0.00,Wunderground v.1.13,2013-02-01 16:00:00,
2013-02-01 11:10:00,28.8,11.6,29.89,NNW,332,8.0,8.0,48,0.00,,,0.00,Wunderground v.1.13,2013-02-01 16:10:00,
2013-02-01 11:15:00,29.1,9.4,29.89,WNW,289,8.0,17.0,43,0.00,,,0.00,Wunderground v.1.13,2013-02-01 16:15:00,
2013-02-01 11:25:00,29.3,7.9,29.89,NNE,17,11.0,11.0,40,0.00,,,0.00,Wunderground v.1.13,2013-02-01 16:25:00,
2013-02-01 11:35:00,29.8,7.8,29.89,NW,315,9.0,24.0,39,0.00,,,0.00,Wunderground v.1.13,2013-02-01 16:35:00,
2013-02-01 11:40:00,29.8,6.7,29.89,NNW,329,9.0,24.0,37,0.00,,,0.00,Wunderground v.1.13,2013-02-01 16:40:00,
2013-02-01 11:45:00,29.7,6.6,29.89,West,272,10.0,10.0,37,0.00,,,0.00,Wunderground v.1.13,2013-02-01 16:45:00,
2013-02-01 11:55:00,30.0,6.2,29.89,WSW,243,9.0,9.0,36,0.00,,,0.00,Wunderground v.1.13,2013-02-01 16:55:00,
2013-02-01 12:05:00,30.0,4.3,29.90,NNW,344,11.0,11.0,33,0.00,,,0.00,Wunderground v.1.13,2013-02-01 17:05:00,
2013-02-01 12:10:00,29.8,4.8,29.90,WNW,294,11.0,11.0,34,0.00,,,0.00,Wunderground v.1.13,2013-02-01 17:10:00,
2013-02-01 12:15:00,30.1,5.1,29.90,West,265,11.0,26.0,34,0.00,,,0.00,Wunderground v.1.13,2013-02-01 17:15:00,
2013-02-01 12:25:00,31.0,6.5,29.90,WNW,290,9.0,21.0,35,0.00,,,0.00,Wunderground v.1.13,2013-02-01 17:25:00,
2013-02-01 12:30:00,31.5,6.9,29.90,West,277,8.0,21.0,35,0.00,,,0.00,Wunderground v.1.13,2013-02-01 17:30:00,
2013-02-01 12:40:00,31.6,6.4,29.90,WNW,286,9.0,9.0,34,0.00,,,0.00,Wunderground v.1.13,2013-02-01 17:40:00,
2013-02-01 12:45:00,31.2,4.7,29.90,WNW,302,10.0,10.0,32,0.00,,,0.00,Wunderground v.1.13,2013-02-01 17:45:00,
2013-02-01 12:55:00,30.9,3.0,29.91,NNW,334,10.0,21.0,30,0.00,,,0.00,Wunderground v.1.13,2013-02-01 17:55:00,
2013-02-01 13:00:00,30.6,3.5,29.91,NW,317,11.0,11.0,31,0.00,,,0.00,Wunderground v.1.13,2013-02-01 18:00:00,
2013-02-01 13:10:00,30.9,3.0,29.92,WSW,244,9.0,26.0,30,0.00,,,0.00,Wunderground v.1.13,2013-02-01 18:10:00,
2013-02-01 13:20:00,30.9,3.8,29.92,WNW,292,10.0,28.0,31,0.00,,,0.00,Wunderground v.1.13,2013-02-01 18:20:00,
2013-02-01 13:25:00,31.5,4.3,29.92,WSW,252,9.0,9.0,31,0.00,,,0.00,Wunderground v.1.13,2013-02-01 18:25:00,
2013-02-01 13:30:00,32.1,4.1,29.92,WNW,299,8.0,28.0,30,0.00,,,0.00,Wunderground v.1.13,2013-02-01 18:30:00,
2013-02-01 13:40:00,30.7,4.3,29.93,WNW,300,11.0,21.0,32,0.00,,,0.00,Wunderground v.1.13,2013-02-01 18:40:00,
2013-02-01 13:45:00,30.9,3.8,29.93,WSW,245,11.0,11.0,31,0.00,,,0.00,Wunderground v.1.13,2013-02-01 18:45:00,
2013-02-01 13:55:00,31.8,3.8,29.93,WNW,285,11.0,11.0,30,0.00,,,0.00,Wunderground v.1.13,2013-02-01 18:55:00,
2013-02-01 14:05:00,30.9,5.8,29.94,NW,312,9.0,26.0,34,0.00,,,0.00,Wunderground v.1.13,2013-02-01 19:05:00,
2013-02-01 14:10:00,31.0,4.5,29.94,NW,313,10.0,10.0,32,0.00,,,0.00,Wunderground v.1.13,2013-02-01 19:10:00,
2013-02-01 14:20:00,32.2,4.9,29.94,West,277,9.0,21.0,31,0.00,,,0.00,Wunderground v.1.13,2013-02-01 19:20:00,
2013-02-01 14:30:00,31.8,3.8,29.95,NW,309,11.0,11.0,30,0.00,,,0.00,Wunderground v.1.13,2013-02-01 19:30:00,
2013-02-01 14:35:00,31.8,3.8,29.95,WNW,288,11.0,11.0,30,0.00,,,0.00,Wunderground v.1.13,2013-02-01 19:35:00,
2013-02-01 14:45:00,31.3,4.1,29.96,WSW,246,9.0,21.0,31,0.00,,,0.00,Wunderground v.1.13,2013-02-01 19:45:00,
2013-02-01 14:55:00,30.1,6.3,29.97,NW,315,10.0,24.0,36,0.00,,,0.00,Wunderground v.1.13,2013-02-01 19:55:00,
2013-02-01 15:00:00,29.8,6.7,29.97,NW,311,10.0,10.0,37,0.00,,,0.00,Wunderground v.1.13,2013-02-01 20:00:00,
2013-02-01 15:10:00,30.9,5.8,29.98,WNW,284,10.0,20.0,34,0.00,,,0.00,Wunderground v.1.13,2013-02-01 20:10:00,
2013-02-01 15:15:00,31.3,5.5,29.98,West,276,9.0,20.0,33,0.00,,,0.00,Wunderground v.1.13,2013-02-01 20:15:00,
2013-02-01 15:25:00,30.9,3.0,29.98,NW,308,11.0,22.0,30,0.00,,,0.00,Wunderground v.1.13,2013-02-01 20:25:00,
2013-02-01 15:35:00,31.0,5.2,30.00,NW,309,10.0,24.0,33,0.00,,,0.00,Wunderground v.1.13,2013-02-01 20:35:00,
2013-02-01 15:40:00,30.6,7.4,30.00,NW,313,8.0,8.0,37,0.00,,,0.00,Wunderground v.1.13,2013-02-01 20:40:00,
2013-02-01 15:50:00,30.1,3.7,30.01,WSW,245,8.0,8.0,32,0.00,,,0.00,Wunderground v.1.13,2013-02-01 20:50:00,
2013-02-01 15:55:00,30.3,2.5,30.01,WNW,289,10.0,18.0,30,0.00,,,0.00,Wunderground v.1.13,2013-02-01 20:55:00,
2013-02-01 16:05:00,30.3,3.2,30.01,WNW,286,11.0,11.0,31,0.00,,,0.00,Wunderground v.1.13,2013-02-01 21:05:00,
2013-02-01 16:10:00,30.6,3.5,30.02,WSW,250,8.0,8.0,31,0.00,,,0.00,Wunderground v.1.13,2013-02-01 21:10:00,
2013-02-01 16:15:00,30.7,2.1,30.02,West,267,7.0,25.0,29,0.00,,,0.00,Wunderground v.1.13,2013-02-01 21:15:00,
2013-02-01 16:25:00,30.0,2.3,30.03,NW,314,10.0,21.0,30,0.00,,,0.00,Wunderground v.1.13,2013-02-01 21:25:00,
2013-02-01 16:35:00,29.5,2.5,30.04,NW,306,10.0,10.0,31,0.00,,,0.00,Wunderground v.1.13,2013-02-01 21:35:00,
2013-02-01 16:40:00,29.5,3.2,30.04,West,276,10.0,10.0,32,0.00,,,0.00,Wunderground v.1.13,2013-02-01 21:40:00,
2013-02-01 16:50:00,29.7,2.7,30.05,WNW,282,8.0,8.0,31,0.00,,,0.00,Wunderground v.1.13,2013-02-01 21:50:00,
2013-02-01 16:55:00,29.5,3.2,30.06,NW,325,9.0,21.0,32,0.00,,,0.00,Wunderground v.1.13,2013-02-01 21:55:00,
2013-02-01 17:00:00,29.4,4.4,30.06,WNW,295,8.0,8.0,34,0.00,,,0.00,Wunderground v.1.13,2013-02-01 22:00:00,
2013-02-01 17:10:00,29.1,4.2,30.07,North,350,6.0,21.0,34,0.00,,,0.00,Wunderground v.1.13,2013-02-01 22:10:00,
2013-02-01 17:20:00,29.1,4.2,30.07,West,263,6.0,6.0,34,0.00,,,0.00,Wunderground v.1.13,2013-02-01 22:20:00,
2013-02-01 17:25:00,29.1,4.2,30.07,West,269,7.0,7.0,34,0.00,,,0.00,Wunderground v.1.13,2013-02-01 22:25:00,
2013-02-01 17:35:00,29.3,2.4,30.08,SW,231,8.0,8.0,31,0.00,,,0.00,Wunderground v.1.13,2013-02-01 22:35:00,
2013-02-01 17:45:00,29.3,3.0,30.09,WSW,254,8.0,8.0,32,0.00,,,0.00,Wunderground v.1.13,2013-02-01 22:45:00,
2013-02-01 17:50:00,29.1,2.9,30.09,WNW,302,9.0,9.0,32,0.00,,,0.00,Wunderground v.1.13,2013-02-01 22:50:00,
2013-02-01 17:55:00,29.1,2.9,30.09,NW,306,8.0,8.0,32,0.00,,,0.00,Wunderground v.1.13,2013-02-01 22:55:00,
2013-02-01 18:05:00,29.0,3.4,30.10,West,275,6.0,16.0,33,0.00,,,0.00,Wunderground v.1.13,2013-02-01 23:05:00,
2013-02-01 18:10:00,29.0,3.4,30.11,WNW,294,5.0,16.0,33,0.00,,,0.00,Wunderground v.1.13,2013-02-01 23:10:00,
2013-02-01 18:20:00,28.8,3.3,30.11,WNW,288,6.0,15.0,33,0.00,,,0.00,Wunderground v.1.13,2013-02-01 23:20:00,
2013-02-01 18:25:00,28.7,3.2,30.12,WNW,292,6.0,6.0,33,0.00,,,0.00,Wunderground v.1.13,2013-02-01 23:25:00,
2013-02-01 18:35:00,28.5,5.5,30.12,WNW,303,7.0,7.0,37,0.00,,,0.00,Wunderground v.1.13,2013-02-01 23:35:00,
2013-02-01 18:45:00,28.4,5.4,30.13,WSW,244,8.0,19.0,37,0.00,,,0.00,Wunderground v.1.13,2013-02-01 23:45:00,
2013-02-01 18:50:00,28.4,4.8,30.14,WSW,251,8.0,8.0,36,0.00,,,0.00,Wunderground v.1.13,2013-02-01 23:50:00,
2013-02-01 19:00:00,28.4,5.4,30.14,West,264,7.0,19.0,37,0.00,,,0.00,Wunderground v.1.13,2013-02-02 00:00:00,
2013-02-01 19:05:00,28.2,5.2,30.14,West,275,6.0,17.0,37,0.00,,,0.00,Wunderground v.1.13,2013-02-02 00:05:00,
2013-02-01 19:15:00,28.1,5.7,30.15,SSW,192,8.0,8.0,38,0.00,,,0.00,Wunderground v.1.13,2013-02-02 00:15:00,
2013-02-01 19:25:00,27.8,6.6,30.16,NW,308,8.0,8.0,40,0.00,,,0.00,Wunderground v.1.13,2013-02-02 00:25:00,
2013-02-01 19:30:00,27.8,6.6,30.16,SW,232,9.0,9.0,40,0.00,,,0.00,Wunderground v.1.13,2013-02-02 00:30:00,
2013-02-01 19:40:00,27.6,5.8,30.16,WSW,257,7.0,7.0,39,0.00,,,0.00,Wunderground v.1.13,2013-02-02 00:40:00,
2013-02-01 19:50:00,27.6,5.8,30.17,WNW,298,5.0,13.0,39,0.00,,,0.00,Wunderground v.1.13,2013-02-02 00:50:00,
2013-02-01 19:55:00,27.6,5.3,30.17,West,260,5.0,5.0,38,0.00,,,0.00,Wunderground v.1.13,2013-02-02 00:55:00,
2013-02-01 20:05:00,27.3,5.0,30.18,WSW,247,5.0,15.0,38,0.00,,,0.00,Wunderground v.1.13,2013-02-02 01:05:00,
2013-02-01 20:15:00,27.2,4.9,30.18,WSW,242,6.0,6.0,38,0.00,,,0.00,Wunderground v.1.13,2013-02-02 01:15:00,
2013-02-01 20:25:00,27.0,5.3,30.18,West,269,6.0,6.0,39,0.00,,,0.00,Wunderground v.1.13,2013-02-02 01:25:00,
2013-02-01 20:35:00,27.0,4.7,30.19,WSW,250,5.0,5.0,38,0.00,,,0.00,Wunderground v.1.13,2013-02-02 01:35:00,
2013-02-01 20:40:00,26.9,4.6,30.19,WNW,302,5.0,5.0,38,0.00,,,0.00,Wunderground v.1.13,2013-02-02 01:40:00,
2013-02-01 20:45:00,26.7,3.9,30.20,WNW,303,5.0,14.0,37,0.00,,,0.00,Wunderground v.1.13,2013-02-02 01:45:00,
2013-02-01 20:55:00,26.6,4.4,30.21,WNW,296,6.0,15.0,38,0.00,,,0.00,Wunderground v.1.13,2013-02-02 01:55:00,
2013-02-01 21:05:00,26.4,4.2,30.21,WNW,290,6.0,6.0,38,0.00,,,0.00,Wunderground v.1.13,2013-02-02 02:05:00,
2013-02-01 21:15:00,26.0,3.8,30.21,West,271,3.0,16.0,38,0.00,,,0.00,Wunderground v.1.13,2013-02-02 02:15:00,
2013-02-01 21:20:00,26.0,4.4,30.21,WSW,252,4.0,10.0,39,0.00,,,0.00,Wunderground v.1.13,2013-02-02 02:20:00,
2013-02-01 21:25:00,25.8,4.2,30.22,WNW,293,5.0,10.0,39,0.00,,,0.00,Wunderground v.1.13,2013-02-02 02:25:00,
2013-02-01 21:35:00,25.7,4.1,30.22,West,268,4.0,4.0,39,0.00,,,0.00,Wunderground v.1.13,2013-02-02 02:35:00,
2013-02-01 21:45:00,25.6,4.0,30.23,West,263,5.0,5.0,39,0.00,,,0.00,Wunderground v.1.13,2013-02-02 02:45:00,
2013-02-01 21:55:00,25.4,4.4,30.23,West,274,5.0,13.0,40,0.00,,,0.00,Wunderground v.1.13,2013-02-02 02:55:00,
2013-02-01 22:05:00,25.3,4.3,30.23,WSW,254,5.0,5.0,40,0.00,,,0.00,Wunderground v.1.13,2013-02-02 03:05:00,
2013-02-01 22:10:00,25.1,4.1,30.24,West,277,5.0,12.0,40,0.00,,,0.00,Wunderground v.1.13,2013-02-02 03:10:00,
2013-02-01 22:20:00,25.0,4.6,30.24,NW,319,5.0,5.0,41,0.00,,,0.00,Wunderground v.1.13,2013-02-02 03:20:00,
2013-02-01 22:30:00,24.8,4.4,30.24,WNW,295,3.0,14.0,41,0.00,,,0.00,Wunderground v.1.13,2013-02-02 03:30:00,
2013-02-01 22:40:00,24.7,4.3,30.25,WNW,303,4.0,4.0,41,0.00,,,0.00,Wunderground v.1.13,2013-02-02 03:40:00,
2013-02-01 22:50:00,24.5,4.1,30.25,WSW,238,3.0,9.0,41,0.00,,,0.00,Wunderground v.1.13,2013-02-02 03:50:00,
2013-02-01 22:55:00,24.5,4.1,30.25,WSW,256,4.0,9.0,41,0.00,,,0.00,Wunderground v.1.13,2013-02-02 03:55:00,
2013-02-01 23:05:00,24.4,4.6,30.26,WNW,295,4.0,11.0,42,0.00,,,0.00,Wunderground v.1.13,2013-02-02 04:05:00,
2013-02-01 23:10:00,24.4,4.0,30.26,NW,309,5.0,11.0,41,0.00,,,0.00,Wunderground v.1.13,2013-02-02 04:10:00,
2013-02-01 23:20:00,24.2,3.9,30.26,West,273,5.0,5.0,41,0.00,,,0.00,Wunderground v.1.13,2013-02-02 04:20:00,
2013-02-01 23:30:00,24.1,4.3,30.26,WNW,292,3.0,3.0,42,0.00,,,0.00,Wunderground v.1.13,2013-02-02 04:30:00,
2013-02-01 23:35:00,23.9,4.1,30.26,WNW,301,3.0,11.0,42,0.00,,,0.00,Wunderground v.1.13,2013-02-02 04:35:00,
2013-02-01 23:45:00,23.8,4.5,30.26,West,259,4.0,11.0,43,0.00,,,0.00,Wunderground v.1.13,2013-02-02 04:45:00,
2013-02-01 23:50:00,23.8,4.5,30.26,WSW,257,6.0,6.0,43,0.00,,,0.00,Wunderground v.1.13,2013-02-02 04:50:00,